User: anonymous   Login
Location: Shenandoah County Park
(38.9356°N, 78.4524°W)
Time: 18:57:02
(UTC-05:00)
Language:

COSMOS 1275 DEB - Orbit

View from above orbital plane
View from above orbital plane
View from above satellite
View from above satellite

Ground track
Ground track

The orbit data is extracted from the following two-line orbital elements,

1 42101U 81053PM  23029.86952658  .00004121  00000-0  13427-2 0  9997
2 42101  82.7805 246.4720 0006805 355.0216   5.0906 14.38530292941894
Epoch (UTC): 29 January 2023 20:52:07
Eccentricity: 0.0006805
inclination: 82.7805°
perigee height: 758 km
apogee height: 768 km
right ascension of ascending node: 246.4720°
argument of perigee: 355.0216°
revolutions per day: 14.38530292
mean anomaly at epoch: 5.0906°
orbit number at epoch: 94189

The dashed part of the orbit path shows where the satellite is in the earth's shadow,  

DLR